User: anonymous   Login
Location: Theydon Bois
(51.6750°N, 0.1050°E)
Time: 15:08:18
(UTC+00:00)
Language:

Aureole 1 Rocket - Orbit

View from above orbital plane
View from above orbital plane
View from above satellite
View from above satellite

Ground track
Ground track

The orbit data is extracted from the following two-line orbital elements,

1 05730U 71119B   18053.40024384  .00000702  00000-0  48853-4 0  9997
2 05730  73.8932  55.1947 0698372 247.1444 105.4523 14.02346196240766
Epoch (UTC): 22 February 2018 09:36:21
Eccentricity: 0.0698372
inclination: 73.8932°
perigee height: 378 km
apogee height: 1393 km
right ascension of ascending node: 55.1947°
argument of perigee: 247.1444°
revolutions per day: 14.02346196
mean anomaly at epoch: 105.4523°
orbit number at epoch: 24076

The dashed part of the orbit path shows where the satellite is in the earth's shadow,  

DLR